{"data":{"norad_id":65274,"intl_designator":"2025-184B","name":"STARLINK-34904","alt_names":[],"object_type":"PAYLOAD","status":"ACTIVE","operator":null,"country":"US","launch_date":"2025-08-22","launch_site_code":"AFWTR","launch_vehicle":null,"mission":null,"orbit_class":"UNKNOWN","rcs_meters":null,"size_class":null,"mass_kg":null,"dimensions":null,"purposes":["comms"],"wikipedia_slug":null,"has_3d_model":false,"image_url":null,"decayed_at":null,"tle_current":{"epoch":"2026-05-25T03:35:54.519648Z","epoch_age_seconds":62002,"freshness":"FRESH","line1":"1 65274U 25184B   26145.14993657  .00052673  00000+0  36177-2 0  9994","line2":"2 65274  97.4503 197.6236 0000655  66.1939 293.9357 15.05753457 42802","mean_motion":15.05753457,"eccentricity":6.55e-5,"inclination_deg":97.4503,"raan_deg":197.6236,"arg_perigee_deg":66.1939,"mean_anomaly_deg":293.9357,"bstar":0.0036177,"rev_number":4280,"period_min":95.633185718796,"perigee_km":548.74008794939,"apogee_km":549.64756828788,"semimajor_km":6927.3308281186,"source":"CELESTRAK","updated_at":"2026-05-25T13:38:20.729350Z"}}}